Regional Weather Roundup
Issued by NWS Little Rock, AR

Home | Current Version | Previous Version | Text Only | Print | Product List | Glossary Off
Versions: 1 2 3 4 5 6 7 8 9 10 11 12 13 14 15 16 17 18 19 20 21 22 23 24 25 26 27 28 29 30 31 32 33 34 35 36 37 38 39 40 41 42 43 44 45 46 47 48 49 50

000
ASUS44 KLZK 201305
RWRLZK

WEATHER ROUNDUP FOR ARKANSAS
NATIONAL WEATHER SERVICE LITTLE ROCK AR
800 AM CDT MON OCT 20 2014

NOTE: "FAIR" INDICATES FEW OR NO CLOUDS BELOW 12,000 FEET WITH NO
SIGNIFICANT WEATHER AND/OR OBSTRUCTIONS TO VISIBILITY.

ARZ001-003-010-029-201400-
NORTHWEST ARKANSAS

CITY           SKY/WX    TMP DP  RH WIND       PRES   REMARKS
FAYETTEVILLE   CLOUDY    54  53  97 S5        30.09S
FORT SMITH     MOCLDY    55  53  93 CALM      30.09R
HARRISON       CLOUDY    57  53  86 W5        30.07R
BENTONVILLE    MOCLDY    55  52  88 S3        30.08S
ROGERS         CLOUDY    55  53  93 S5        30.09R
SILOAM SPGS    CLOUDY    55  48  76 S6        30.09S
HIGHFILL       CLOUDY    54  53  97 CALM      30.08R
$$

ARZ004-005-016-201400-
NORTH CENTRAL ARKANSAS

CITY           SKY/WX    TMP DP  RH WIND       PRES   REMARKS
BATESVILLE     CLOUDY    54  48  82 CALM      30.07S
FLIPPIN        MOCLDY    52  46  82 CALM      30.07R
MTN HOME       CLOUDY    54  49  83 CALM      30.06R
$$

ARZ040-041-201400-
WEST CENTRAL ARKANSAS

CITY           SKY/WX    TMP DP  RH WIND       PRES   REMARKS
MENA           CLEAR     52  50  93 CALM      30.10S
MOUNT IDA      PTCLDY    47  46  97 CALM      30.07S
$$

ARZ009-017-025-026-028-201400-
NORTHEAST ARKANSAS

CITY           SKY/WX    TMP DP  RH WIND       PRES   REMARKS
CORNING        FAIR      54  50  87 SW6       30.07R FOG
JONESBORO      MOCLDY    51  48  89 CALM      30.08R
NEWPORT        PTCLDY    50  48  92 S5        30.09R
WALNUT RIDGE   MOCLDY    52  37  58 S5        30.07R
BLYTHEVILLE    MOCLDY    53  51  93 SW5       30.08R
NW BLYTHEVILLE MOCLDY    54  50  87 SW5       30.08
$$

ARZ022-023-033-042-044-201400-
CENTRAL ARKANSAS

CITY           SKY/WX    TMP DP  RH WIND       PRES   REMARKS
LITTLE ROCK    PTCLDY    50  46  86 CALM      30.09S
N LITTLE ROCK    N/A     53  51  90 CALM      30.09S
JACKSONVILLE   PTCLDY    48  46  94 CALM      30.10R
SEARCY         PTCLDY    48  47  96 CALM      30.10R
HOT SPRINGS    CLEAR     49  47  93 CALM      30.10R
RUSSELLVILLE   CLOUDY    52  50  93 CALM      30.08S
$$

ARZ036-201400-
EAST ARKANSAS

CITY           SKY/WX    TMP DP  RH WIND       PRES   REMARKS
WEST MEMPHIS   PTCLDY    46  46 100 CALM      30.08S FOG
$$

ARZ050-053-066-070-073-201400-
SOUTHWEST ARKANSAS

CITY           SKY/WX    TMP DP  RH WIND       PRES   REMARKS
ARKADELPHIA    FAIR      48  48 100 CALM      30.11R
CAMDEN         CLEAR     45  41  87 CALM      30.11R
TEXARKANA      CLEAR     49  48  97 CALM      30.10R FOG
EL DORADO      CLEAR     46  45  96 CALM      30.10R
DE QUEEN       FOG       48  48 100 CALM      30.09S VSB 1/2
$$

ARZ056-057-069-201400-
SOUTHEAST ARKANSAS

CITY           SKY/WX    TMP DP  RH WIND       PRES   REMARKS
PINE BLUFF     CLEAR     47  45  93 CALM      30.11R
STUTTGART      CLEAR     52  46  82 CALM      30.10S
MONTICELLO     CLEAR     47  45  93 CALM      30.09R

$$





USA.gov is the U.S. government's official web portal to all federal, state and local government web resources and services.